Weather History for White Plains, NY

Change the Weather History Date:

Saturday, December 8, 2012

  Actual Average Record
Temperature  
Mean Temperature 44 °F -  
Max Temperature 48 °F 42 °F 61 °F (1980)
Min Temperature 41 °F 29 °F 12 °F (1976)
Degree Days  
Heating Degree Days 20    
Moisture  
Dew Point 44 °F    
Average Humidity 93    
Maximum Humidity 97    
Minimum Humidity 87    
Precipitation  
Precipitation 0.24 in - - ()
Sea Level Pressure  
Sea Level Pressure 29.93 in    
Wind  
Wind Speed 1 mph (NW)    
Max Wind Speed 5 mph    
Max Gust Speed -    
Visibility 2 miles    
Events Fog , Rain    
Averages and records for this station are not official NWS values.
T = Trace of Precipitation, MM = Missing Value Source: NWS Daily Summary

Daily Weather History Graph

Daily Weather History Graph

Search for Another Location

Airport:

Trip Planner

Search our weather history database for the weather conditions in past years. The results will help you decide how hot, cold, wet, or windy it might be!

Date:

Astronomy

Dec. 08, 2012 Rise Set
Actual Time 7:07 AM EST 4:26 PM EST
Civil Twilight 6:36 AM EST 4:57 PM EST
Nautical Twilight 6:02 AM EST 5:31 PM EST
Astronomical Twilight 5:28 AM EST 6:05 PM EST
Moon 1:27 AM EST (12/8) 12:56 PM EST (12/8)
Length of Visible Light 10h 20m
Length of Day
9h 18m
Waning Crescent, 28% of the Moon is Illuminated
Dec 8
Waning Crescent
Dec 13
New
Dec 20
First Quarter
Dec 28
Full
Jan 4
Last Quarter

Hourly Weather History & Observations

Time (EST) Temp. Windchill Dew Point Humidity Pressure Visibility Wind Dir Wind Speed Gust Speed Precip Events Conditions
12:56 AM 42.1 °F - 39.9 °F 92% 30.01 in 1.0 mi Calm Calm - 0.03 in Rain Light Rain
1:56 AM 42.1 °F - 39.9 °F 92% 30.01 in 1.5 mi Calm Calm - 0.10 in Rain Light Rain
2:56 AM 41.0 °F 39.0 °F 39.9 °F 96% 29.98 in 2.0 mi East 3.5 mph - 0.07 in Rain Light Rain
3:56 AM 42.1 °F 40.2 °F 39.9 °F 92% 29.97 in 2.0 mi NE 3.5 mph - 0.02 in Rain Light Rain
4:56 AM 42.1 °F 40.2 °F 41.0 °F 96% 29.94 in 2.0 mi NNE 3.5 mph - 0.00 in   Overcast
5:53 AM 42.8 °F - 41.0 °F 93% 29.91 in 3.0 mi Calm Calm - 0.00 in   Overcast
5:56 AM 43.0 °F 41.3 °F 41.0 °F 93% 29.93 in 3.0 mi North 3.5 mph - 0.00 in   Overcast
6:56 AM 43.0 °F - 42.1 °F 97% 29.93 in 1.0 mi Calm Calm - 0.00 in   Overcast
7:56 AM 44.1 °F - 42.1 °F 93% 29.91 in 1.0 mi Calm Calm - N/A   Overcast
8:56 AM 44.1 °F - 43.0 °F 96% 29.92 in 0.8 mi Calm Calm - N/A   Mist
9:56 AM 45.0 °F - 44.1 °F 97% 29.92 in 0.5 mi Calm Calm - N/A Fog Fog
10:56 AM 46.0 °F 44.8 °F 45.0 °F 96% 29.91 in 0.5 mi WNW 3.5 mph - 0.01 in Fog Fog
11:56 AM 46.9 °F - 45.0 °F 93% 29.89 in 1.0 mi Calm Calm - N/A   Mist
12:56 PM 48.0 °F - 46.0 °F 93% 29.88 in 1.0 mi West 3.5 mph - N/A   Overcast
1:35 PM 48.2 °F - 46.4 °F 93% 29.85 in 2.0 mi Variable 3.5 mph - N/A   Overcast
1:56 PM 48.9 °F - 46.0 °F 90% 29.87 in 2.0 mi Calm Calm - N/A   Overcast
2:56 PM 48.0 °F - 46.0 °F 93% 29.89 in 2.0 mi Variable 4.6 mph - N/A   Overcast
3:56 PM 48.9 °F - 46.0 °F 90% 29.90 in 2.0 mi Calm Calm - N/A   Overcast
4:56 PM 48.9 °F - 46.0 °F 90% 29.91 in 1.5 mi West 3.5 mph - N/A   Overcast
5:56 PM 48.9 °F - 46.0 °F 90% 29.91 in 2.0 mi Calm Calm - N/A   Overcast
6:56 PM 48.0 °F - 46.0 °F 93% 29.93 in 2.0 mi Calm Calm - N/A   Overcast
7:56 PM 48.0 °F - 46.0 °F 93% 29.95 in 2.0 mi Calm Calm - N/A   Overcast
8:56 PM 48.2 °F - 44.6 °F 87% 29.95 in 2.0 mi Calm Calm - N/A   Overcast
8:59 PM 46.4 °F - 44.6 °F 93% 29.95 in 1.5 mi Calm Calm - N/A   Overcast
9:56 PM 46.9 °F - 45.0 °F 93% 29.97 in 1.5 mi WNW 3.5 mph - 0.00 in Rain Light Rain
10:56 PM 46.9 °F - 45.0 °F 93% 29.99 in 1.5 mi West 3.5 mph - 0.00 in Rain Light Rain
11:56 PM 46.9 °F - 45.0 °F 93% 30.00 in 3.0 mi West 4.6 mph - 0.01 in Rain Light Rain